GFSGBSN_850_rhum_366.txt.gz
RH
49 50 49 49 50 54 58 62 65 67 70 69 67 63 52 45 45 48 49 48 45 41 39 40 50 57 95 93 77 25 41 45 38 31 22 34 29 24 27 23 23 23 19 17 17 16 15
52 54 56 61 64 66 69 72 74 74 72 72 72 71 66 59 52 52 52 47 44 43 42 44 43 71 98 94 45 43 38 46 44 43 49 30 22 20 21 21 24 21 21 18 16 16 16
67 70 75 78 80 82 82 81 82 81 82 81 77 74 73 65 58 57 53 49 44 41 43 44 47 84 100 81 44 44 42 60 67 67 66 40 28 26 19 25 21 19 23 20 19 17 18
74 77 81 83 86 88 86 87 88 88 87 86 83 78 76 69 65 60 55 52 49 47 56 52 55 78 97 72 58 64 59 49 57 55 46 33 25 24 22 21 22 27 29 35 23 21 19
83 82 86 91 91 90 94 93 87 85 88 88 86 82 76 70 65 68 70 68 47 50 66 60 71 88 76 54 54 42 42 45 39 24 24 24 23 27 27 36 38 34 42 38 32 23 23
83 82 86 88 95 99 99 96 96 97 92 89 89 85 72 67 71 72 76 64 60 56 72 68 91 71 56 50 38 37 34 35 32 26 25 26 26 38 37 43 63 52 46 39 38 28 27
81 81 89 93 95 99 99 100 99 97 96 96 91 82 64 72 64 74 85 85 79 60 72 70 58 64 52 46 53 55 48 30 28 32 36 30 41 49 41 38 36 38 38 40 35 28 34
79 81 85 96 93 99 100 100 96 93 97 95 81 68 64 88 77 78 98 92 97 95 97 80 74 69 71 72 70 65 60 41 38 58 42 49 54 38 34 34 37 39 44 47 38 32 52
82 88 96 100 94 99 100 98 89 91 89 79 68 60 53 58 61 90 92 94 92 98 97 75 65 66 68 70 66 61 60 60 57 61 55 60 50 38 41 42 45 44 48 46 47 37 41
85 92 93 100 100 100 98 90 89 85 78 68 59 49 42 49 67 95 88 92 87 92 97 54 61 72 54 72 63 52 66 60 60 70 64 57 44 46 47 49 45 61 41 41 46 61 95
89 92 97 100 100 98 91 90 84 80 72 52 36 27 27 35 88 99 97 96 73 91 96 42 62 48 38 54 42 48 60 64 74 51 51 78 56 52 55 50 43 59 55 70 82 98 99
95 98 100 100 98 90 88 84 70 50 32 22 16 13 15 24 60 93 92 93 87 99 90 45 39 38 40 43 37 37 38 48 41 43 47 50 35 48 43 37 45 68 70 93 95 97 96
100 100 99 96 89 88 82 60 35 20 10 4 2 2 5 40 81 93 95 84 97 96 32 45 62 64 64 56 45 52 59 86 91 95 88 54 50 42 38 50 65 74 98 96 97 96 89
100 99 95 91 87 76 45 21 11 2 2 1 1 5 37 98 100 97 100 97 97 49 59 68 64 57 60 53 70 64 78 82 58 72 91 90 79 55 45 50 79 92 82 94 95 93 78
100 93 90 88 70 27 12 3 2 2 1 1 4 65 98 94 93 91 97 96 83 94 85 82 73 66 64 54 64 61 62 69 82 89 96 97 94 51 52 45 53 96 96 65 89 82 97
95 91 90 44 16 6 2 2 2 2 2 3 12 95 85 89 80 88 98 88 93 86 61 53 80 64 88 74 82 83 77 62 83 71 82 94 92 77 44 44 49 74 66 95 97 95 94
94 84 22 12 4 2 3 3 3 4 6 6 59 80 76 58 58 92 94 90 73 35 42 50 61 71 78 83 75 70 66 66 84 84 66 79 93 93 74 77 68 87 97 98 97 89 94
77 22 10 2 3 5 7 8 12 11 8 7 59 68 60 58 75 84 78 46 35 42 47 55 62 74 84 78 88 83 93 78 62 69 94 80 97 92 96 94 92 86 95 81 95 95 87
22 4 3 4 7 10 12 13 12 12 11 17 74 80 60 28 92 81 56 48 40 48 58 65 73 68 72 81 93 82 69 47 54 55 94 91 95 96 87 97 92 95 93 94 95 98 97
6 6 4 5 9 11 10 5 6 12 15 45 71 92 78 61 64 83 76 80 56 46 57 71 84 59 82 88 75 88 84 66 57 56 79 90 95 96 96 97 96 95 93 94 95 96 96
6 5 4 5 5 5 4 5 8 14 21 60 74 82 73 93 70 80 78 79 83 79 63 73 80 82 93 98 91 88 78 72 65 54 80 94 96 93 94 95 92 95 96 96 95 97 97
4 2 3 3 3 3 2 3 4 9 19 29 81 87 57 77 70 80 79 90 86 79 79 86 93 88 86 97 96 96 96 94 98 72 82 91 96 94 98 95 89 94 93 95 96 96 96
2 3 3 3 3 3 3 2 2 4 7 32 72 52 34 71 72 82 85 82 78 80 71 75 96 99 91 99 100 93 95 94 95 78 79 95 96 96 96 95 95 85 99 97 96 95 98
3 3 3 4 4 4 4 4 4 3 4 8 11 60 58 89 87 84 78 77 81 83 94 78 84 93 70 64 85 97 100 97 96 84 53 82 95 95 97 95 97 95 95 94 96 97 96
3 4 4 4 4 5 5 5 5 4 4 4 16 20 45 91 75 70 78 76 61 70 72 88 71 63 62 92 96 72 72 66 69 49 48 55 91 97 96 97 98 97 93 95 97 99 94
4 5 5 5 5 5 6 6 6 6 6 5 5 8 43 71 70 60 89 65 92 89 80 79 50 36 56 96 85 76 92 90 76 55 38 49 56 86 91 95 100 97 72 56 84 94 75
9 10 10 10 10 9 8 7 7 7 9 9 8 6 8 40 33 37 64 81 81 76 95 64 58 58 48 75 85 85 81 72 83 78 86 74 85 78 77 91 98 88 61 48 91 96 70
10 10 10 11 11 11 13 12 8 8 8 9 15 17 18 30 38 39 44 48 55 60 92 47 78 61 73 88 87 81 84 78 79 76 86 87 96 95 85 80 64 79 57 72 78 58 69
10 10 11 11 11 12 12 14 15 10 10 10 11 16 19 24 34 36 36 41 44 44 58 68 60 72 79 99 90 84 80 86 81 99 82 86 84 98 78 84 72 44 57 48 52 50 46

GFSGBSN_850_rhum_372.txt.gz
RH
80 83 84 86 88 89 89 83 82 87 93 91 90 87 82 80 79 73 67 62 58 52 43 40 54 97 99 98 79 35 48 47 51 73 57 87 79 65 70 68 56 54 43 35 36 37 34
84 83 81 82 83 82 80 76 81 87 86 86 86 84 78 76 76 73 67 62 53 45 37 37 72 99 99 97 55 55 56 62 58 68 70 70 67 58 55 51 60 47 44 39 34 31 32
81 80 78 73 75 77 74 75 82 93 97 91 88 79 73 74 73 70 65 55 42 35 38 37 78 99 100 89 63 65 70 63 62 62 81 69 62 50 41 33 37 41 48 37 32 31 31
79 77 77 75 76 77 82 84 80 98 100 98 84 79 77 76 70 64 50 38 31 36 38 40 69 99 94 75 58 52 54 52 54 59 77 77 70 72 59 44 36 33 34 42 28 27 27
72 72 74 76 80 87 87 88 95 93 97 92 84 82 76 64 45 33 28 25 32 45 52 57 66 84 88 66 49 57 53 44 39 52 63 57 54 32 33 39 54 46 53 45 37 27 28
69 70 72 81 86 88 89 98 100 100 96 84 83 68 48 31 23 22 21 36 37 74 67 46 82 88 63 58 60 56 53 36 37 42 37 41 26 37 45 51 90 65 55 46 44 34 30
67 67 72 78 85 87 89 98 99 98 87 81 61 31 19 15 11 9 36 54 70 71 65 74 59 71 66 62 63 49 59 57 57 36 40 32 42 50 45 46 47 48 48 53 50 36 34
67 71 74 82 86 92 94 93 95 88 81 62 28 15 6 2 1 18 70 89 94 95 96 74 68 78 71 77 83 48 62 67 46 58 41 44 54 41 36 40 42 43 52 59 47 42 52
69 72 80 89 97 100 99 94 85 79 55 22 8 2 1 1 8 79 77 98 81 99 93 72 67 72 58 62 73 60 56 65 61 59 61 67 59 47 46 48 49 55 59 61 62 48 94
68 73 86 97 98 99 90 84 77 37 14 2 1 1 1 1 46 27 94 94 93 100 97 67 69 64 40 46 67 40 54 66 72 87 83 78 62 61 63 76 64 95 66 57 56 64 93
84 94 100 95 97 93 86 59 19 6 1 1 1 1 4 26 26 69 91 83 99 96 57 51 58 51 41 49 44 48 42 32 77 68 84 80 90 93 95 82 76 83 69 84 96 97 97
96 99 97 96 90 84 37 10 2 1 1 2 3 7 28 59 85 90 89 80 90 84 74 73 62 60 38 48 60 42 33 47 47 68 84 86 64 68 86 63 62 62 100 99 99 98 96
100 96 96 89 84 30 4 2 2 2 3 6 8 58 75 89 86 84 82 91 85 90 58 78 73 54 38 57 56 52 64 84 87 94 78 60 65 54 62 79 61 90 98 94 97 96 92
96 97 92 86 44 4 2 2 3 3 3 4 13 66 86 85 87 77 93 78 90 74 83 66 53 42 55 62 62 49 62 93 75 63 79 91 66 61 43 45 71 68 77 94 95 96 86
94 91 84 28 2 2 2 2 3 3 3 4 24 52 35 38 60 75 86 94 94 79 58 60 55 68 70 61 64 57 86 85 76 63 100 100 86 42 41 39 78 75 80 63 94 93 96
93 81 14 2 2 2 3 3 3 4 4 6 33 75 12 61 40 72 87 89 88 61 55 54 94 80 99 86 85 87 92 77 66 58 61 88 96 46 46 46 49 84 95 94 97 94 93
70 9 2 2 3 3 3 3 3 3 4 14 57 86 18 46 60 57 98 83 55 48 62 77 96 97 96 99 92 97 89 77 61 63 58 79 97 69 68 95 95 87 90 92 99 89 91
6 2 2 3 4 4 4 4 4 4 4 19 51 66 8 45 46 84 90 59 43 50 60 64 77 78 92 78 99 96 93 82 62 59 88 88 97 99 99 95 94 86 95 96 98 96 96
2 3 3 4 4 5 5 5 4 4 5 27 74 59 10 6 75 96 56 56 44 59 65 72 82 67 74 95 98 92 72 50 59 63 94 90 97 99 83 89 62 92 82 93 96 96 99
3 4 4 5 5 6 6 5 4 4 4 32 40 68 24 41 73 80 88 64 57 56 65 77 79 66 89 97 84 96 88 65 64 72 57 66 92 98 93 95 98 95 86 83 93 97 98
4 5 5 6 6 6 6 6 6 5 4 24 41 82 54 82 84 76 83 88 90 80 70 79 71 93 99 100 95 98 88 76 72 71 59 90 95 95 95 96 69 88 95 90 95 98 97
5 6 6 7 7 8 8 8 7 6 5 5 47 64 45 77 52 62 79 84 99 83 87 80 93 90 100 99 96 98 97 99 100 86 74 84 98 98 100 95 96 78 87 86 90 97 96
5 6 7 8 8 9 9 9 9 8 6 8 26 29 11 67 78 73 85 80 78 88 68 79 95 100 100 93 82 89 96 86 100 99 75 86 99 98 99 96 95 80 99 96 92 95 99
7 8 8 8 9 10 10 11 11 10 8 6 9 15 10 64 90 86 84 92 97 87 95 78 91 100 56 63 88 89 95 95 89 95 67 84 100 98 99 96 93 96 92 96 97 98 97
8 8 9 9 10 11 11 12 13 12 10 10 8 9 9 67 68 59 63 98 76 62 85 92 70 57 48 82 76 60 62 57 58 66 75 82 97 97 90 99 96 76 79 94 98 90 90
8 9 9 9 10 11 12 13 14 15 12 12 11 11 12 31 65 55 80 62 95 99 75 51 42 37 52 83 81 93 84 83 75 77 52 66 55 85 77 83 72 63 59 52 88 87 84
8 8 8 8 9 12 13 13 14 16 13 13 15 13 20 33 42 46 51 62 63 82 100 71 55 39 48 86 89 83 78 82 94 99 100 93 91 88 94 80 68 62 53 52 59 59 48
8 7 8 9 10 11 14 14 15 16 15 12 15 20 20 34 41 46 52 56 50 54 83 48 57 50 78 87 86 93 88 89 91 95 100 100 100 100 97 92 94 56 66 81 66 46 49
7 7 9 11 12 12 15 15 17 16 18 15 16 16 19 22 33 36 39 56 60 59 62 39 55 82 82 91 93 93 92 95 100 99 90 98 99 100 99 96 64 61 87 96 97 96 96

GFSGBSN_850_rhum_375.txt.gz
RH
70 69 67 65 66 69 74 77 80 77 83 97 99 88 74 71 72 72 69 63 59 53 37 31 52 99 97 98 84 43 60 63 63 81 92 92 86 66 77 80 69 74 60 48 45 46 38
70 69 68 68 71 76 81 88 89 86 89 92 99 90 76 75 72 63 52 37 29 25 21 28 55 98 98 96 64 64 70 70 70 68 77 95 93 75 73 68 69 56 58 53 49 43 41
68 66 67 70 74 79 84 87 88 92 99 100 100 87 75 68 45 29 26 22 20 18 20 30 65 97 99 91 69 67 48 47 50 63 64 60 84 78 56 52 51 43 63 54 49 46 45
67 68 68 72 75 78 81 88 96 100 99 99 97 81 71 41 22 15 10 8 9 26 27 59 69 98 89 89 79 53 53 51 51 42 50 63 71 84 82 69 66 66 46 57 35 40 36
64 67 68 71 75 79 86 93 97 100 100 98 86 71 38 18 8 2 1 2 18 25 59 69 58 96 88 70 63 50 46 50 49 42 47 68 68 58 44 88 98 81 94 74 51 29 31
63 66 68 69 76 86 87 98 100 98 94 83 66 31 14 4 1 1 5 18 28 55 74 46 80 77 57 56 57 51 53 54 41 41 45 37 34 42 51 79 88 76 96 83 62 40 32
63 66 68 79 84 92 97 100 99 90 82 52 18 7 1 1 1 8 34 38 70 54 53 80 70 82 67 58 53 51 52 59 58 59 51 34 43 60 61 54 63 65 68 87 81 61 55
62 70 83 98 98 95 100 96 85 71 30 11 2 1 1 1 2 32 72 93 99 98 96 75 70 69 64 72 82 48 61 65 57 75 48 50 63 49 42 43 46 54 63 64 54 47 56
73 88 97 99 98 94 92 85 55 18 4 1 1 1 1 2 10 22 89 93 99 97 99 76 68 74 37 49 70 58 37 69 77 79 65 76 68 52 56 60 57 57 57 58 61 49 97
92 100 100 97 95 90 83 45 10 2 1 2 2 2 3 11 28 52 82 85 94 90 89 68 73 62 32 31 61 35 25 39 57 86 80 83 73 82 85 96 85 96 63 55 59 74 94
100 100 97 93 88 83 52 12 1 2 2 3 3 3 22 44 66 82 83 84 80 85 59 50 55 52 23 46 50 47 32 34 67 62 66 55 61 78 80 73 71 92 99 99 98 96 95
100 98 94 87 83 50 7 2 2 2 3 3 4 12 45 56 71 74 79 83 87 78 55 75 62 58 26 47 56 40 49 40 49 62 58 41 38 60 72 55 45 56 83 86 89 96 96
98 91 87 84 37 3 2 2 3 3 3 4 4 45 64 60 46 70 74 93 81 71 56 76 67 44 39 57 57 47 64 70 72 88 69 53 53 49 36 38 33 42 68 96 99 96 79
89 89 80 22 2 2 3 3 3 3 4 4 6 51 20 31 38 57 78 72 52 72 75 54 47 46 69 60 55 52 69 85 77 62 75 90 71 52 37 47 59 60 59 95 96 94 95
92 74 12 2 2 3 4 4 4 4 4 5 16 44 10 49 34 58 73 95 93 84 59 53 51 74 72 62 67 58 86 82 86 69 94 100 86 38 39 51 62 91 93 67 92 77 92
57 5 2 3 4 4 5 5 5 4 4 7 34 64 18 22 66 69 82 87 83 59 62 54 100 83 98 86 81 92 92 82 81 57 68 87 97 50 48 44 50 80 74 88 95 95 94
5 2 3 4 5 5 5 6 5 5 4 10 44 69 6 48 29 21 88 85 52 49 63 73 96 98 97 99 92 98 90 86 61 61 62 78 97 72 59 94 96 81 91 90 96 99 96
2 4 4 5 5 6 6 6 6 5 5 12 49 52 4 16 34 83 87 55 45 52 63 62 76 73 90 81 100 97 95 84 62 60 94 92 97 100 93 94 83 76 96 98 100 95 96
4 5 5 6 6 7 7 7 7 6 5 17 57 28 6 5 68 86 57 40 48 62 66 65 78 61 77 96 98 92 76 58 63 60 90 90 98 100 84 74 66 96 82 87 94 96 99
5 5 5 6 7 8 8 8 8 7 5 20 25 61 18 21 48 76 79 63 53 54 68 72 67 64 88 94 82 99 92 70 64 62 60 61 95 90 88 93 98 95 87 85 94 97 97
6 6 6 6 7 8 9 9 9 8 6 16 24 78 46 81 84 83 76 89 84 74 68 75 63 94 100 100 90 98 88 80 69 79 52 88 96 94 90 94 71 86 92 91 96 98 98
6 6 7 7 7 9 10 10 10 10 7 6 32 37 40 83 54 60 76 78 99 81 87 73 87 92 100 98 95 100 100 100 100 90 72 79 98 99 100 95 96 87 86 86 87 97 97
6 7 7 7 8 9 11 12 11 11 9 8 16 14 11 59 74 72 85 75 76 88 65 83 94 100 97 92 80 89 96 91 99 99 78 84 100 100 99 98 94 85 98 97 96 95 99
7 7 7 7 9 10 12 12 13 12 11 10 8 8 10 64 91 86 89 89 96 91 94 86 96 98 55 70 98 85 95 99 92 91 78 79 100 100 100 89 94 79 81 94 98 99 96
7 7 7 7 9 11 12 13 14 12 12 11 11 8 14 73 68 63 68 96 72 62 88 95 70 64 56 82 80 62 67 64 64 75 81 78 96 83 91 100 85 73 82 91 98 88 91
7 7 7 8 9 12 14 14 16 15 14 12 14 14 14 37 68 62 74 61 91 98 76 44 41 37 57 79 79 90 90 84 84 77 54 70 87 83 74 68 80 95 78 58 92 91 78
6 7 8 10 10 14 15 16 17 17 16 14 15 18 22 38 49 52 59 71 68 84 97 63 50 47 50 86 88 88 93 85 97 99 100 93 94 100 99 81 84 81 83 62 82 96 95
6 8 8 11 12 15 16 17 18 18 18 15 18 20 20 33 44 52 66 73 64 72 87 54 66 63 76 84 83 91 92 91 91 95 100 100 100 100 98 94 94 88 80 90 92 90 97
7 8 10 12 13 16 18 19 18 20 20 18 18 23 26 30 44 43 47 66 74 82 65 41 67 86 91 91 94 95 94 96 99 99 89 98 99 100 99 96 96 81 97 96 98 99 98

GFSGBSN_850_rhum_378.txt.gz
RH
61 60 61 62 66 69 72 76 80 85 98 100 99 98 100 86 74 65 34 20 16 14 15 19 34 99 95 98 92 52 62 67 61 75 94 94 94 88 83 84 75 90 75 59 56 52 50
58 61 63 63 64 66 71 77 89 98 100 99 99 100 91 78 65 28 11 4 1 1 5 17 43 99 94 97 70 71 73 53 48 56 76 77 97 88 74 74 74 66 67 62 57 56 53
56 60 60 62 65 69 75 86 98 99 99 98 98 92 79 51 16 4 1 1 1 7 23 38 60 97 99 91 74 75 49 46 51 55 47 49 61 89 74 74 69 63 73 52 46 54 54
58 62 65 68 73 87 93 98 97 99 99 93 82 69 31 10 1 1 1 2 11 16 40 60 67 94 92 84 74 76 52 47 49 48 47 45 57 87 95 83 85 90 87 99 44 41 47
61 64 67 73 87 98 94 95 99 99 89 78 49 18 4 1 1 1 2 10 19 39 78 59 70 95 80 64 55 53 47 54 53 42 43 47 79 89 62 99 99 98 96 90 87 52 39
64 70 79 98 100 100 98 98 97 86 61 25 8 1 1 1 2 3 10 14 32 60 61 54 72 65 54 56 56 58 60 62 66 46 50 40 36 46 57 94 87 73 89 87 93 66 43
87 95 100 100 100 100 91 87 81 48 17 3 1 1 2 2 6 22 28 24 44 42 43 81 78 90 67 55 62 53 45 64 61 60 68 51 50 74 70 71 71 71 76 84 67 56 67
97 100 99 99 98 91 85 78 49 12 2 2 2 2 3 4 11 28 54 81 99 100 97 80 72 62 55 50 84 32 29 65 71 80 63 66 76 61 56 58 60 62 68 66 54 46 53
100 99 98 91 90 84 77 45 8 2 2 2 3 3 3 10 17 45 74 95 99 91 98 77 70 77 25 29 54 39 22 28 66 84 78 93 71 57 60 67 80 79 94 85 64 51 96
100 99 92 86 84 76 39 4 2 2 3 3 3 4 6 19 33 47 74 84 88 92 88 62 74 61 24 22 57 40 31 42 36 73 61 81 54 53 58 64 70 93 68 90 95 95 94
100 96 88 84 71 26 3 2 3 3 4 4 4 4 26 46 47 58 70 76 94 96 56 56 62 52 26 38 44 43 38 33 65 49 60 57 48 48 72 79 37 95 54 80 78 96 96
95 88 85 58 12 2 2 4 4 4 4 4 4 8 37 22 27 38 65 76 91 69 47 77 58 50 37 48 52 44 52 40 41 53 38 39 36 56 73 36 35 40 57 62 81 91 94
88 83 49 8 2 3 4 4 4 4 4 4 6 16 20 9 42 32 59 81 74 69 53 67 59 42 47 57 50 53 66 74 76 83 69 49 41 41 37 56 48 60 83 93 94 100 73
82 43 5 2 4 4 5 5 5 5 5 5 8 32 22 10 45 49 73 68 40 70 77 50 42 47 72 59 54 60 65 78 81 66 79 88 76 50 44 54 64 74 91 99 98 100 97
47 7 2 4 4 5 5 6 6 6 6 5 12 42 23 16 55 56 59 90 95 85 59 55 58 76 75 63 64 66 88 83 90 71 92 100 84 42 44 46 60 83 99 73 96 93 100
5 3 4 4 5 5 6 7 7 7 6 6 20 58 8 18 28 21 78 86 80 56 61 62 100 81 99 84 81 93 88 84 82 57 72 91 99 52 49 42 45 75 70 93 97 100 100
3 4 4 5 6 6 7 8 8 8 7 7 28 49 5 9 7 13 90 80 48 50 64 74 93 98 95 99 94 98 86 82 49 63 69 77 97 76 57 94 98 79 92 91 98 99 99
4 4 5 5 6 7 8 8 9 8 8 8 30 40 5 5 33 72 87 46 47 56 59 59 69 75 89 82 100 99 93 84 54 56 97 91 97 100 88 77 84 81 97 100 100 98 97
5 5 5 6 6 7 9 10 10 9 8 9 30 12 6 6 71 79 58 34 49 62 63 67 69 65 79 98 99 92 75 61 68 61 93 92 96 99 88 67 66 96 81 90 97 100 100
5 5 5 6 6 8 9 10 10 10 8 12 14 59 16 17 49 78 73 66 52 54 64 68 69 65 83 93 82 100 92 73 68 65 56 68 97 86 88 92 96 96 85 88 94 98 94
5 5 5 6 6 7 9 11 11 10 9 8 14 78 46 82 75 76 73 87 79 76 68 70 69 96 100 100 88 98 89 81 68 76 57 86 98 91 87 90 80 85 94 90 96 99 98
5 5 6 6 7 8 10 12 12 11 9 7 28 28 30 77 51 58 75 72 99 80 83 76 92 95 100 100 96 100 100 100 100 90 84 81 100 99 99 96 96 88 88 83 86 96 98
6 6 6 6 8 9 12 13 12 13 12 9 12 13 13 55 66 75 86 70 72 91 65 90 96 100 86 91 87 95 99 97 100 100 91 88 100 100 100 98 90 86 100 98 95 95 100
6 6 7 7 8 11 14 14 14 14 13 12 8 10 13 69 82 84 96 93 88 96 91 89 98 89 64 78 99 87 97 84 97 83 85 78 100 99 100 89 93 90 96 95 98 98 97
6 6 8 9 10 13 15 15 16 15 14 13 12 12 18 77 79 66 78 89 64 63 91 96 66 62 58 81 86 71 76 69 69 77 90 76 98 77 83 100 90 85 91 98 99 91 97
6 7 8 10 11 14 16 16 17 17 14 14 16 16 20 41 71 74 78 69 94 96 79 42 46 44 58 76 82 97 100 94 86 72 51 74 90 89 83 99 100 100 82 83 88 93 85
6 7 9 11 12 16 17 18 18 18 16 16 18 20 24 44 59 64 74 83 79 88 93 65 55 60 47 83 88 92 95 89 93 91 100 89 93 100 100 92 92 95 90 79 82 96 93
7 8 10 11 14 18 18 19 20 20 19 18 21 23 24 36 52 65 81 88 83 86 91 57 72 71 73 84 88 96 92 90 88 93 100 100 100 100 97 95 93 98 74 86 94 93 97
8 10 11 12 15 19 20 19 21 21 22 22 25 29 31 38 51 52 60 70 79 87 64 59 74 91 94 91 95 94 94 94 99 98 88 97 99 100 100 96 86 80 94 97 99 100 100

GFSGBSN_850_rhum_381.txt.gz
RH
52 56 60 64 66 66 67 82 93 98 96 100 100 100 100 87 62 23 4 1 1 1 3 16 33 94 92 94 88 62 63 61 54 49 82 92 93 88 83 77 76 83 73 66 66 57 58
51 56 60 62 65 70 79 87 78 78 78 81 80 79 70 35 8 1 1 1 1 6 14 25 47 100 99 93 70 72 77 76 48 54 57 82 88 82 88 78 81 70 71 66 66 66 64
56 61 67 72 79 96 99 88 76 76 75 72 63 34 11 2 1 1 1 2 5 8 14 37 62 98 100 87 75 82 79 61 52 55 57 48 48 70 74 80 79 78 88 75 69 62 60
61 74 90 99 100 99 100 93 84 78 71 49 23 5 1 2 2 2 3 7 11 18 58 62 53 99 88 87 79 68 61 45 46 45 50 46 50 70 91 81 78 86 93 98 65 53 49
76 87 99 99 97 95 97 88 80 71 46 13 2 2 2 3 3 4 6 15 20 36 62 46 78 87 76 59 52 63 51 46 49 41 43 43 67 93 80 96 99 100 98 90 77 56 49
92 99 99 97 92 89 86 81 64 28 5 2 2 3 3 3 6 11 15 18 31 52 48 64 64 67 56 54 69 36 36 46 64 48 46 45 42 52 66 76 81 62 87 83 81 68 63
96 100 98 95 86 82 79 56 15 3 2 3 3 3 3 4 12 34 32 18 41 36 50 86 81 90 66 33 71 38 30 28 41 59 74 63 57 72 70 69 71 84 90 92 70 55 64
99 99 99 91 81 74 39 8 2 3 3 4 4 4 4 6 21 38 50 81 99 99 96 74 79 71 42 31 61 33 24 28 62 87 71 66 71 63 52 52 56 69 87 79 66 54 58
99 98 87 79 67 28 4 2 3 4 4 4 4 4 4 14 24 33 59 87 98 99 98 73 75 66 23 33 50 41 24 25 51 49 62 91 74 32 37 53 60 69 73 73 80 71 74
92 89 78 60 18 3 3 4 4 4 5 5 5 5 8 15 31 31 54 69 85 99 89 62 67 40 23 39 59 43 30 38 49 56 53 62 40 44 61 63 48 82 65 59 60 81 89
90 81 56 13 2 3 4 4 5 5 5 5 5 7 20 12 19 36 38 64 91 95 56 65 64 29 40 42 39 47 35 39 49 46 56 45 41 52 58 49 41 65 50 68 73 81 73
83 63 20 3 4 4 5 5 6 6 6 6 6 10 29 14 12 38 42 67 98 66 50 69 51 38 49 48 44 51 50 40 42 47 35 39 36 45 44 36 43 38 58 74 83 83 99
71 32 3 4 4 4 5 6 6 7 7 7 7 16 39 11 26 46 55 74 70 67 54 63 47 42 55 54 51 52 63 73 71 79 69 49 48 39 38 48 38 50 88 94 89 94 85
40 3 4 4 4 5 6 6 7 8 8 7 8 27 12 8 53 44 59 59 36 70 80 46 44 52 74 58 56 63 60 76 78 68 79 87 77 52 41 52 63 62 77 96 100 94 89
4 4 4 4 4 5 6 7 8 8 8 8 10 33 6 6 16 16 46 96 95 83 57 72 62 74 72 63 63 69 78 84 81 78 92 100 79 42 36 44 54 79 98 65 97 93 97
4 4 4 4 4 6 7 8 8 9 9 8 15 53 6 6 6 11 74 85 75 60 63 63 100 81 98 85 83 91 88 59 50 54 77 92 99 51 41 40 44 72 64 91 95 99 97
4 4 4 4 5 6 7 9 10 10 9 9 15 31 6 6 6 17 96 71 47 56 56 78 93 96 94 99 95 95 88 77 52 59 70 83 95 74 53 80 99 79 89 87 93 97 98
4 4 4 4 5 7 9 10 10 10 9 8 13 36 8 8 37 75 88 45 48 59 53 64 59 74 85 86 100 96 96 86 55 61 97 92 96 98 91 72 87 86 96 99 97 98 94
4 4 4 5 6 8 10 11 11 10 9 9 16 9 9 8 74 83 47 35 49 58 57 66 64 68 78 96 94 91 74 68 66 66 97 90 94 98 89 64 65 95 82 90 97 97 97
4 4 5 5 6 9 12 12 11 10 10 10 11 62 16 19 47 82 73 67 53 53 59 66 74 69 84 93 78 97 91 66 66 73 78 67 94 82 87 92 95 96 88 81 87 94 93
5 5 6 6 7 12 12 12 11 11 10 10 14 78 41 77 62 71 70 83 76 80 68 71 71 94 100 100 87 99 87 81 66 76 60 81 98 88 92 90 84 91 93 91 95 99 96
5 5 6 7 10 13 13 12 12 11 10 9 14 23 25 70 47 57 75 76 99 76 89 80 96 96 99 100 97 100 100 100 100 85 92 82 100 99 100 97 92 87 85 88 87 94 98
5 6 7 8 12 14 14 13 13 12 12 10 12 14 18 63 62 79 89 75 72 89 64 92 100 98 87 96 98 98 100 100 98 96 92 99 100 99 100 98 83 82 99 98 98 96 100
6 7 8 10 14 15 15 14 13 13 13 12 13 15 21 78 80 74 86 96 86 94 91 85 95 92 76 88 97 89 86 96 68 90 77 82 99 99 100 80 94 89 86 97 97 97 97
7 8 9 12 16 16 16 15 14 14 15 14 14 16 23 87 89 76 87 87 66 63 88 83 53 60 72 98 81 76 79 69 69 79 86 77 97 78 83 99 89 85 92 97 98 98 91
8 9 10 14 17 16 17 16 15 16 16 16 19 19 23 44 80 83 84 82 96 96 74 42 49 56 57 78 83 96 100 98 78 70 50 64 86 89 91 98 100 98 84 88 90 93 77
9 10 11 15 17 17 19 18 17 18 18 16 21 22 26 53 75 75 90 92 91 94 94 66 57 62 45 87 93 90 92 93 87 92 100 88 93 100 100 96 96 95 68 68 81 88 93
11 10 12 16 18 17 19 21 20 20 22 18 24 27 24 46 66 71 81 84 84 87 90 58 71 70 69 85 91 100 92 89 86 90 100 100 100 100 96 95 94 98 70 87 97 95 100
12 11 14 17 17 18 19 22 22 20 24 23 28 29 26 37 60 62 65 71 76 83 65 63 74 93 81 92 97 97 95 96 96 99 87 95 97 99 99 95 70 76 98 90 99 100 100